Zurück zum Katalog

USA 403

AktivNavigationVLEO
NORAD 61024·PAYLOAD·🇺🇸 United States

Gestartet Sep 6, 2024 von Vandenberg Space Force Base

Loading…

Nächste Überflüge (nächste 24 Stunden)

TLE

VeraltetSource: Mike McCants

Epoche: Sep 9, 2026, 20:11 UTC

1 61024U 24160D   26252.84124161 0.00000000  00000-0  00000-0 0    03
2 61024  70.0170 159.5375 0002999 308.8164  51.1836 14.96713248    03

Verfolge USA 403 in Echtzeit mit AllMySat

Download on the App Store